Location: Coed Ely
(51.5661°N, 3.4150°W)
Time: 02:18:09
(UTC+00:00)

Cosmos 1269 Rocket - Pass Details

Date: 28 January 2021
Orbit: 772 x 779 km, 74.1° (Epoch: 28 February)

Event Time Altitude Azimuth Distance (km) Brightness Sun altitude
Rises 19:22:09 0° 337° (NNW) 3,266 7.5 -22.5°
Reaches altitude 10° 19:24:38 10° 343° (NNW) 2,335 6.7 -22.9°
Enters shadow 19:29:03 45° 34° (NNE) 1,061 4.4 -23.6°
